OK1CMJ-5 Weather Reports


time (UTC)temp
F
wind
direction
speed
knots
gust
knots
rain 1hr
in
rain 24hr
in
rain mn
in
humidity
%
barometer
mb
20260902102050 73 353 1.7 7.0 0.00 0.02 0.00 10 1024.4
20260902101150 74 1 2.6 5.2 0.00 0.02 0.00 10 1024.2
20260902095351 72 345 0.9 4.3 0.00 0.02 0.00 10 1024.4
20260902094450 71 1 1.7 3.5 0.00 0.02 0.00 11 1024.3
20260902093550 71 355 1.7 6.1 0.00 0.02 0.00 11 1024.5
20260902092650 72 327 0.9 3.5 0.00 0.02 0.00 10 1024.5
20260902091750 72 316 0.0 5.2 0.00 0.02 0.00 12 1024.7
20260902090850 70 314 0.9 1.7 0.00 0.02 0.00 15 1024.5
20260902085950 69 318 0.0 3.5 0.00 0.02 0.00 15 1024.4
20260902085050 70 321 0.0 1.7 0.00 0.02 0.00 13 1024.4
20260902083250 71 321 0.9 5.2 0.00 0.02 0.00 12 1024.2
20260902082350 73 315 0.0 1.7 0.00 0.02 0.00 12 1024.4
20260902081450 76 347 0.0 1.7 0.00 0.02 0.00 10 1024.4
20260902080550 77 1 0.0 2.6 0.00 0.02 0.00 10 1024.4
20260902075650 77 1 0.9 3.5 0.00 0.02 0.00 11 1024.3
20260902074750 76 134 0.9 3.5 0.00 0.02 0.00 12 1024.3
20260902073850 75 297 0.0 4.3 0.00 0.02 0.00 13 1024.3
20260902072950 74 350 0.9 4.3 0.00 0.02 0.00 13 1024.3
20260902072050 73 299 1.7 3.5 0.00 0.02 0.00 15 1024.4
20260902065350 73 270 0.9 2.6 0.00 0.02 0.00 24 1024.5
20260902064450 74 270 0.9 1.7 0.00 0.02 0.00 28 1024.4
20260902063550 72 270 0.0 1.7 0.00 0.02 0.00 35 1024.4
20260902062650 71 347 0.0 1.7 0.00 0.02 0.00 40 1024.4
20260902061750 70 1 0.0 0.9 0.00 0.02 0.00 55 1024.2
20260902060850 69 1 0.0 0.9 0.00 0.02 0.00 74 1024.5
20260902055950 64 1 0.0 1.7 0.00 0.02 0.00 75 1024.5
20260902055051 61 357 0.9 1.7 0.00 0.02 0.00 79 1024.2
20260902054150 60 316 0.0 1.7 0.00 0.02 0.00 98 1024.1
20260902053250 58 0 0.0 0.0 0.00 0.02 0.00 99 1024.1
20260902052350 54 0 0.0 0.0 0.00 0.02 0.00 91 1024.0
20260902051450 51 181 0.0 0.9 0.00 0.02 0.00 87 1024.1
20260902050550 50 314 0.0 0.9 0.00 0.02 0.00 86 1024.0
20260902045650 49 314 0.0 0.9 0.00 0.02 0.00 85 1024.1
20260902044750 49 0 0.0 0.0 0.00 0.02 0.00 85 1023.9
20260902043852 49 0 0.0 0.0 0.00 0.02 0.00 84 1023.9
20260902042950 49 314 0.0 0.9 0.00 0.02 0.00 83 1024.0
20260902041150 50 0 0.0 0.0 0.00 0.02 0.00 82 1023.8
20260902040250 50 0 0.0 0.0 0.00 0.02 0.00 82 1023.8
20260902035350 51 0 0.0 0.0 0.00 0.02 0.00 82 1023.9
20260902034450 51 0 0.0 0.0 0.00 0.02 0.00 82 1023.9
20260902033550 51 0 0.0 0.0 0.00 0.02 0.00 82 1024.0
20260902030850 52 0 0.0 0.0 0.00 0.02 0.00 82 1024.1
20260902025950 52 270 0.0 0.9 0.00 0.02 0.00 81 1024.0
20260902025050 51 0 0.0 0.0 0.00 0.02 0.00 81 1024.1
20260902024150 51 0 0.0 0.0 0.00 0.02 0.00 80 1024.2
20260902023250 51 0 0.0 0.0 0.00 0.02 0.00 79 1024.2
20260902013850 50 314 0.0 0.9 0.00 0.02 0.00 74 1024.2
20260902012950 51 0 0.0 0.0 0.00 0.02 0.00 74 1024.1
20260902012051 51 0 0.0 0.0 0.00 0.02 0.00 74 1024.0
20260902011150 50 0 0.0 0.0 0.00 0.04 0.00 73 1023.9
20260902010250 50 0 0.0 0.0 0.00 0.04 0.00 73 1024.0
20260902005350 51 0 0.0 0.0 0.00 0.04 0.00 73 1024.0
20260902004450 51 270 0.0 1.7 0.00 0.04 0.00 73 1024.0
20260902003550 51 270 0.0 1.7 0.00 0.04 0.00 73 1024.0
20260902002650 51 0 0.0 0.0 0.00 0.04 0.00 72 1024.1
20260902001750 51 0 0.0 0.0 0.00 0.04 0.00 72 1024.1
20260902000850 51 1 0.0 0.9 0.00 0.04 0.00 71 1024.1
20260901235950 51 1 0.0 1.7 0.00 0.04 0.00 71 1024.0
20260901235050 51 1 0.0 1.7 0.00 0.04 0.00 70 1024.1
20260901234150 50 0 0.0 0.0 0.00 0.04 0.00 69 1024.1
20260901233250 50 1 0.0 0.9 0.00 0.04 0.00 68 1024.2
20260901232350 50 1 0.0 0.9 0.00 0.04 0.00 68 1024.3
20260901231450 51 1 0.0 0.9 0.00 0.04 0.00 68 1024.1
20260901230550 51 0 0.0 0.0 0.00 0.04 0.00 67 1024.2
20260901225650 51 1 0.0 1.7 0.00 0.04 0.00 67 1024.1
20260901224750 51 0 0.0 0.0 0.00 0.04 0.00 66 1024.2
20260901223850 51 0 0.0 0.0 0.00 0.04 0.00 66 1024.1
20260901222950 51 0 0.0 0.0 0.00 0.04 0.00 66 1024.3
20260901222050 52 0 0.0 0.0 0.00 0.04 0.00 65 1024.3
20260901221150 52 0 0.0 0.0 0.00 0.04 0.00 66 1024.4
20260901220250 52 1 0.0 0.9 0.00 0.04 0.00 65 1024.3
20260901215349 52 1 0.0 1.7 0.00 0.04 0.04 66 1024.4
20260901214450 52 1 0.0 1.7 0.00 0.04 0.04 65 1024.4
20260901213549 52 1 0.0 1.7 0.00 0.04 0.04 65 1024.4
20260901212650 52 1 0.0 1.7 0.02 0.04 0.04 64 1024.1
20260901211750 52 277 0.0 1.7 0.02 0.04 0.04 64 1024.4
20260901210850 52 352 0.0 1.7 0.02 0.04 0.04 63 1024.4
20260901205949 52 343 0.9 1.7 0.02 0.04 0.04 61 1024.1
20260901205050 52 287 0.0 1.7 0.02 0.04 0.04 60 1024.1
20260901204149 52 270 0.0 1.7 0.02 0.04 0.04 59 1024.0
20260901203250 52 270 0.0 1.7 0.00 0.01 0.01 57 1024.1
20260901202349 52 280 0.0 1.7 0.00 0.01 0.01 56 1023.9
20260901201450 52 314 0.0 0.9 0.00 0.01 0.01 55 1024.0
20260901200549 53 314 0.0 0.9 0.00 0.01 0.01 52 1024.0
20260901195650 53 314 0.0 1.7 0.00 0.01 0.01 51 1023.9
20260901194749 53 314 0.0 1.7 0.00 0.01 0.01 49 1024.0
20260901193850 54 314 0.0 1.7 0.00 0.01 0.01 49 1023.9
20260901192949 54 314 0.0 1.7 0.00 0.01 0.01 49 1024.0
20260901192050 54 1 0.0 1.7 0.00 0.01 0.01 48 1024.0
20260901191150 55 181 0.0 1.7 0.00 0.01 0.01 46 1023.9
20260901190249 55 181 0.0 1.7 0.00 0.02 0.01 42 1023.8
20260901184450 56 330 0.0 0.9 0.00 0.02 0.01 40 1023.6
20260901183549 56 276 0.0 0.9 0.00 0.02 0.01 39 1023.6
20260901182650 57 270 0.0 1.7 0.00 0.02 0.01 36 1023.4
20260901181750 58 285 0.0 1.7 0.00 0.02 0.01 34 1023.4
20260901180849 59 270 0.0 0.9 0.00 0.02 0.01 31 1023.2
20260901175950 60 270 0.0 0.9 0.00 0.02 0.01 29 1023.1
20260901175049 61 270 0.0 0.9 0.00 0.02 0.01 26 1023.1
20260901174150 62 270 0.0 0.9 0.00 0.02 0.01 23 1023.0
20260901173250 63 270 0.0 0.9 0.00 0.02 0.01 20 1022.9
20260901172349 64 0 0.0 0.0 0.00 0.02 0.01 18 1023.1
20260901171450 66 270 0.0 0.9 0.00 0.02 0.01 17 1023.0
20260901170549 67 296 0.0 1.7 0.00 0.02 0.01 13 1022.9
20260901164749 68 307 0.0 3.5 0.00 0.02 0.01 12 1023.0
20260901163850 69 311 0.9 3.5 0.00 0.02 0.01 11 1023.0
20260901162949 69 347 0.0 3.5 0.00 0.02 0.01 10 1023.2
20260901162050 70 310 1.7 3.5 0.00 0.02 0.01 10 1023.2
20260901161149 71 296 1.7 2.6 0.00 0.02 0.01 10 1023.2
20260901160249 73 307 0.0 3.5 0.00 0.02 0.01 10 1023.1
20260901155349 75 299 0.9 5.2 0.00 0.02 0.01 10 1023.1
20260901154450 75 295 1.7 3.5 0.00 0.02 0.01 10 1023.0
20260901153549 74 349 0.9 4.3 0.00 0.02 0.01 10 1023.1
20260901152649 72 312 0.0 3.5 0.00 0.02 0.01 10 1023.2
20260901151749 74 292 0.0 6.1 0.00 0.02 0.01 10 1023.1
20260901150849 76 293 0.9 3.5 0.00 0.02 0.01 10 1023.1
20260901145949 74 324 0.9 3.5 0.00 0.02 0.01 10 1023.1
20260901145050 71 315 0.0 3.5 0.00 0.02 0.01 10 1023.3
20260901144149 71 314 0.9 4.3 0.00 0.02 0.01 14 1023.2
20260901143249 70 306 0.9 4.3 0.00 0.02 0.01 13 1023.2
20260901142349 70 299 0.9 6.1 0.00 0.02 0.01 12 1023.2
20260901141449 71 302 0.9 4.3 0.00 0.02 0.01 10 1023.2
20260901140550 70 294 1.7 7.0 0.00 0.02 0.01 11 1023.4
20260901135650 71 290 3.5 7.0 0.00 0.02 0.01 10 1023.4
20260901134750 73 298 0.9 7.0 0.00 0.02 0.01 10 1023.6
20260901133849 76 317 1.7 7.0 0.00 0.02 0.01 10 1023.3
20260901132050 73 246 0.9 5.2 0.00 0.02 0.01 10 1023.5
20260901131149 75 290 0.9 6.1 0.00 0.02 0.01 10 1023.4
20260901130249 77 270 1.7 6.1 0.00 0.02 0.01 10 1023.5
20260901125349 76 295 1.7 7.0 0.00 0.02 0.01 10 1023.4
20260901124450 76 325 0.9 7.0 0.00 0.02 0.01 10 1023.6
20260901123549 75 1 0.0 6.1 0.00 0.02 0.01 10 1023.7
20260901122650 74 338 1.7 3.5 0.00 0.02 0.01 10 1023.7
20260901121749 69 303 0.0 2.6 0.00 0.02 0.01 12 1023.8
20260901120849 69 181 0.0 3.5 0.00 0.02 0.01 14 1023.9
20260901115949 69 357 0.0 4.3 0.00 0.02 0.01 14 1023.9
20260901115049 69 311 0.9 4.3 0.00 0.02 0.01 14 1024.0
20260901114149 70 314 0.0 3.5 0.00 0.02 0.01 13 1024.1
20260901112349 71 314 0.0 7.0 0.00 0.02 0.01 12 1024.1
20260901111449 74 304 0.9 8.7 0.00 0.02 0.01 10 1024.0
20260901110550 75 283 1.7 5.2 0.00 0.02 0.01 10 1024.0
20260901105649 73 319 0.9 7.8 0.00 0.02 0.01 11 1024.0
20260901104749 72 341 1.7 7.0 0.00 0.02 0.01 13 1023.9
20260901103849 71 347 2.6 7.0 0.00 0.02 0.01 13 1024.0
20260901102949 71 346 0.9 9.6 0.00 0.02 0.01 14 1024.1